Find Starlink 30160

NORAD ID: 57441 Int'l Des: 2023-105 Owner: SPXS Country: US Constellation: starlink operational
LEOCIRCULAR

当前视图

正在加载3D地球...

About Starlink 30160

Starlink 30160 (NORAD 57441) is a starlink constellation satellite (v2 mini) launched Jul 24, 2023 by SPXS of US. It operates in LEO, CIRCULAR orbit with a mass of 730.00 kg.

关于 Starlink 30160

正在加载描述...

即将过境

Passes for default location (London). Set your location on the main map for personalized predictions.

高度历史

Loading altitude history...

两行轨道根数

1 57441U 23105M 26170.37521849 .00001921 00000-0 79347-4 0 9994
2 57441 43.0010 52.3732 0001231 266.1125 93.9586 15.27566061160896
Epoch: Jun 19, 2026 • Age: 26 hours

当前状态

高度 487.5 km
速度 7.62 km/s
星下点 -21.10°S, 176.33°E
发射日期 Jul 24, 2023
运行时间 2.9 years
类型 internet

技术详情

分类 Payload
质量 730.00 kg
干质量 700.00 kg
总质量 730.00 kg
长度 0.30 m
直径 4.10 m
跨度 29.00 m
形状 Box + pan
制造商 SPXS
平台类型 Starlink V2M
阶段状态 In Orbit
所有者/国家 SPXS/US

Most Searched